QPF
0.00 0.00 0.00 0.00 0.00 0.00 0.00 0.00 0.01 0.01 0.00 0.00 0.00 0.00 0.00 0.00 0.00 0.00 0.01 0.01 0.00 0.00 0.00 0.00 0.00 0.00 0.01 0.01 0.01 0.02 0.03 0.04 0.03 0.02 0.02 0.01 0.01 0.01 0.01 0.01 0.01 0.01 0.02 0.02
0.01 0.00 0.00 0.00 0.00 0.00 0.00 0.00 0.00 0.00 0.00 0.00 0.01 0.01 0.01 0.00 0.00 0.00 0.01 0.00 0.00 0.00 0.00 0.00 0.00 0.00 0.00 0.01 0.01 0.02 0.03 0.02 0.02 0.02 0.02 0.01 0.01 0.00 0.01 0.01 0.01 0.01 0.02 0.02
0.01 0.00 0.00 0.00 0.00 0.00 0.00 0.00 0.00 0.00 0.00 0.00 0.01 0.02 0.02 0.01 0.01 0.01 0.01 0.00 0.00 0.00 0.00 0.00 0.00 0.00 0.01 0.01 0.01 0.02 0.02 0.01 0.01 0.01 0.02 0.02 0.01 0.01 0.01 0.01 0.01 0.01 0.01 0.02
0.01 0.01 0.01 0.00 0.00 0.00 0.00 0.00 0.00 0.01 0.00 0.00 0.01 0.01 0.02 0.02 0.01 0.01 0.01 0.00 0.00 0.00 0.00 0.01 0.01 0.01 0.02 0.02 0.02 0.02 0.02 0.02 0.01 0.01 0.01 0.01 0.01 0.01 0.01 0.01 0.01 0.01 0.01 0.02
0.02 0.02 0.01 0.00 0.00 0.00 0.00 0.00 0.00 0.00 0.00 0.01 0.01 0.01 0.01 0.01 0.01 0.02 0.02 0.01 0.01 0.01 0.01 0.01 0.01 0.01 0.02 0.03 0.03 0.03 0.03 0.03 0.02 0.01 0.01 0.01 0.01 0.01 0.01 0.01 0.01 0.01 0.01 0.01
0.01 0.02 0.02 0.01 0.00 0.00 0.01 0.01 0.01 0.00 0.00 0.01 0.01 0.01 0.01 0.01 0.01 0.02 0.02 0.02 0.01 0.01 0.01 0.01 0.01 0.01 0.03 0.04 0.04 0.05 0.04 0.04 0.04 0.03 0.03 0.02 0.02 0.01 0.01 0.01 0.01 0.01 0.02 0.02
0.01 0.01 0.01 0.00 0.00 0.01 0.02 0.03 0.01 0.01 0.01 0.01 0.02 0.02 0.01 0.01 0.01 0.01 0.01 0.01 0.01 0.01 0.01 0.02 0.02 0.02 0.03 0.05 0.06 0.06 0.06 0.05 0.06 0.06 0.05 0.04 0.03 0.03 0.04 0.03 0.02 0.02 0.03 0.03
0.01 0.01 0.01 0.00 0.00 0.01 0.02 0.01 0.01 0.01 0.01 0.01 0.01 0.00 0.01 0.01 0.01 0.01 0.01 0.01 0.01 0.01 0.01 0.02 0.02 0.02 0.03 0.04 0.06 0.05 0.05 0.04 0.04 0.05 0.05 0.05 0.05 0.05 0.05 0.05 0.04 0.05 0.06 0.04
0.02 0.01 0.01 0.00 0.00 0.00 0.00 0.01 0.01 0.01 0.01 0.01 0.01 0.01 0.01 0.00 0.01 0.01 0.01 0.02 0.01 0.01 0.01 0.01 0.01 0.01 0.02 0.02 0.03 0.03 0.03 0.03 0.03 0.03 0.03 0.03 0.03 0.03 0.03 0.04 0.04 0.04 0.04 0.02
0.02 0.01 0.00 0.01 0.00 0.01 0.01 0.01 0.01 0.01 0.01 0.00 0.00 0.00 0.00 0.00 0.01 0.01 0.02 0.02 0.01 0.01 0.01 0.01 0.01 0.01 0.01 0.02 0.02 0.01 0.01 0.01 0.01 0.01 0.02 0.02 0.01 0.02 0.02 0.03 0.03 0.03 0.03 0.02
0.01 0.01 0.01 0.01 0.01 0.01 0.01 0.01 0.00 0.00 0.00 0.00 0.00 0.00 0.00 0.00 0.01 0.01 0.01 0.01 0.01 0.01 0.01 0.01 0.01 0.01 0.01 0.02 0.03 0.02 0.01 0.01 0.01 0.01 0.01 0.01 0.01 0.02 0.02 0.02 0.03 0.03 0.03 0.03
0.01 0.01 0.02 0.02 0.01 0.01 0.01 0.01 0.00 0.00 0.00 0.00 0.00 0.00 0.00 0.00 0.00 0.01 0.01 0.02 0.02 0.02 0.01 0.01 0.01 0.01 0.01 0.02 0.02 0.02 0.02 0.01 0.01 0.01 0.01 0.01 0.02 0.02 0.03 0.03 0.03 0.04 0.05 0.06
0.01 0.01 0.01 0.02 0.01 0.00 0.00 0.00 0.00 0.00 0.00 0.00 0.00 0.00 0.00 0.00 0.00 0.01 0.01 0.02 0.02 0.02 0.02 0.01 0.01 0.01 0.01 0.01 0.01 0.02 0.02 0.02 0.02 0.01 0.01 0.01 0.02 0.03 0.04 0.03 0.03 0.04 0.05 0.07
0.01 0.01 0.01 0.01 0.00 0.00 0.00 0.00 0.00 0.00 0.00 0.00 0.00 0.00 0.01 0.01 0.01 0.01 0.01 0.01 0.01 0.02 0.02 0.01 0.01 0.01 0.02 0.01 0.01 0.01 0.02 0.02 0.02 0.01 0.01 0.01 0.01 0.02 0.03 0.03 0.03 0.04 0.04 0.05
0.01 0.01 0.01 0.00 0.00 0.00 0.00 0.00 0.01 0.01 0.01 0.00 0.00 0.01 0.01 0.01 0.01 0.01 0.01 0.01 0.01 0.01 0.01 0.01 0.02 0.01 0.01 0.01 0.01 0.01 0.02 0.02 0.02 0.01 0.01 0.01 0.01 0.02 0.03 0.05 0.06 0.06 0.05 0.05
0.01 0.00 0.00 0.01 0.01 0.00 0.00 0.01 0.01 0.02 0.01 0.01 0.01 0.01 0.01 0.01 0.01 0.01 0.01 0.01 0.01 0.01 0.01 0.02 0.02 0.02 0.01 0.01 0.01 0.01 0.01 0.02 0.01 0.01 0.02 0.02 0.02 0.02 0.03 0.05 0.07 0.08 0.08 0.08
0.01 0.01 0.01 0.02 0.02 0.02 0.01 0.01 0.01 0.01 0.01 0.01 0.01 0.01 0.01 0.01 0.02 0.02 0.01 0.01 0.01 0.01 0.01 0.02 0.02 0.01 0.01 0.01 0.01 0.01 0.01 0.01 0.02 0.02 0.02 0.03 0.03 0.03 0.04 0.05 0.05 0.06 0.07 0.08
0.01 0.01 0.01 0.01 0.01 0.01 0.01 0.01 0.00 0.00 0.01 0.01 0.00 0.00 0.01 0.01 0.01 0.01 0.01 0.00 0.01 0.01 0.01 0.01 0.01 0.01 0.01 0.01 0.01 0.01 0.01 0.02 0.02 0.02 0.02 0.03 0.03 0.03 0.03 0.03 0.04 0.04 0.05 0.06
0.01 0.01 0.00 0.01 0.00 0.01 0.01 0.00 0.00 0.00 0.00 0.00 0.00 0.00 0.01 0.01 0.01 0.00 0.00 0.00 0.01 0.01 0.01 0.01 0.01 0.01 0.01 0.01 0.01 0.01 0.01 0.01 0.02 0.02 0.02 0.02 0.02 0.02 0.03 0.03 0.03 0.03 0.04 0.05
0.01 0.01 0.01 0.01 0.01 0.00 0.00 0.00 0.00 0.00 0.00 0.00 0.00 0.00 0.00 0.01 0.01 0.00 0.00 0.00 0.01 0.01 0.01 0.01 0.01 0.01 0.01 0.00 0.01 0.02 0.02 0.02 0.02 0.02 0.02 0.02 0.02 0.02 0.02 0.02 0.02 0.02 0.02 0.03
0.01 0.01 0.01 0.01 0.01 0.01 0.00 0.00 0.00 0.01 0.00 0.00 0.00 0.00 0.01 0.01 0.01 0.00 0.00 0.00 0.00 0.00 0.01 0.01 0.01 0.01 0.01 0.01 0.00 0.01 0.01 0.01 0.02 0.02 0.02 0.01 0.01 0.01 0.01 0.01 0.01 0.01 0.01 0.01
0.00 0.01 0.01 0.01 0.00 0.00 0.00 0.00 0.01 0.01 0.01 0.01 0.01 0.01 0.01 0.01 0.01 0.00 0.00 0.00 0.00 0.00 0.00 0.00 0.01 0.01 0.01 0.01 0.01 0.01 0.01 0.01 0.01 0.01 0.01 0.01 0.01 0.01 0.01 0.01 0.01 0.01 0.01 0.01
0.01 0.01 0.01 0.01 0.01 0.00 0.00 0.01 0.01 0.01 0.01 0.01 0.01 0.02 0.02 0.01 0.01 0.00 0.00 0.00 0.00 0.00 0.00 0.01 0.01 0.01 0.01 0.02 0.02 0.02 0.01 0.01 0.01 0.01 0.01 0.01 0.01 0.01 0.01 0.01 0.01 0.01 0.01 0.01
0.01 0.01 0.01 0.01 0.01 0.01 0.01 0.01 0.01 0.01 0.01 0.01 0.01 0.01 0.01 0.01 0.01 0.00 0.00 0.01 0.01 0.01 0.01 0.02 0.02 0.01 0.01 0.01 0.02 0.02 0.02 0.02 0.01 0.01 0.01 0.01 0.01 0.01 0.01 0.01 0.01 0.01 0.01 0.01
0.01 0.01 0.01 0.01 0.01 0.02 0.02 0.01 0.01 0.01 0.01 0.01 0.01 0.01 0.01 0.01 0.01 0.01 0.01 0.01 0.02 0.02 0.01 0.01 0.01 0.01 0.00 0.01 0.01 0.01 0.02 0.03 0.02 0.02 0.02 0.01 0.01 0.01 0.01 0.01 0.02 0.02 0.02 0.02
0.03 0.02 0.02 0.02 0.02 0.02 0.02 0.02 0.02 0.02 0.02 0.01 0.01 0.01 0.01 0.01 0.01 0.01 0.01 0.02 0.02 0.02 0.01 0.01 0.01 0.00 0.00 0.01 0.01 0.01 0.01 0.02 0.03 0.03 0.02 0.02 0.01 0.01 0.01 0.01 0.01 0.01 0.01 0.01
0.03 0.04 0.03 0.03 0.03 0.02 0.02 0.02 0.02 0.02 0.02 0.02 0.02 0.01 0.01 0.01 0.01 0.02 0.02 0.02 0.02 0.01 0.01 0.00 0.00 0.00 0.01 0.01 0.01 0.01 0.01 0.01 0.02 0.03 0.03 0.03 0.02 0.01 0.01 0.01 0.00 0.00 0.01 0.01
MSLP
1013.23 1013.07 1012.88 1012.72 1012.62 1012.59 1012.66 1012.83 1013.07 1013.36 1013.67 1013.96 1014.20 1014.37 1014.45 1014.44 1014.34 1014.17 1013.94 1013.67 1013.37 1013.05 1012.72 1012.40 1012.07 1011.74 1011.43 1011.14 1010.89 1010.68 1010.54 1010.47 1010.48 1010.57 1010.73 1010.96 1011.23 1011.53 1011.83 1012.12 1012.40 1012.66 1012.91 1013.16
1013.39 1013.24 1013.05 1012.88 1012.75 1012.68 1012.70 1012.80 1012.96 1013.17 1013.40 1013.63 1013.81 1013.94 1014.00 1014.00 1013.94 1013.82 1013.67 1013.49 1013.29 1013.07 1012.84 1012.60 1012.34 1012.06 1011.78 1011.50 1011.24 1011.01 1010.84 1010.74 1010.71 1010.77 1010.92 1011.13 1011.39 1011.68 1011.98 1012.28 1012.55 1012.81 1013.06 1013.31
1013.47 1013.32 1013.15 1012.97 1012.81 1012.72 1012.69 1012.73 1012.84 1012.99 1013.16 1013.33 1013.48 1013.58 1013.64 1013.64 1013.61 1013.54 1013.44 1013.33 1013.20 1013.06 1012.90 1012.72 1012.51 1012.28 1012.02 1011.76 1011.49 1011.25 1011.05 1010.92 1010.86 1010.89 1011.00 1011.18 1011.42 1011.70 1011.99 1012.28 1012.57 1012.84 1013.09 1013.33
1013.46 1013.33 1013.15 1012.96 1012.80 1012.69 1012.63 1012.64 1012.71 1012.83 1012.97 1013.11 1013.24 1013.33 1013.39 1013.41 1013.39 1013.35 1013.28 1013.20 1013.11 1013.00 1012.88 1012.73 1012.55 1012.34 1012.10 1011.85 1011.58 1011.33 1011.12 1010.96 1010.88 1010.87 1010.95 1011.10 1011.32 1011.58 1011.86 1012.16 1012.45 1012.74 1013.01 1013.27
1013.36 1013.22 1013.05 1012.87 1012.70 1012.58 1012.52 1012.52 1012.59 1012.69 1012.83 1012.97 1013.10 1013.20 1013.27 1013.29 1013.28 1013.24 1013.17 1013.09 1012.99 1012.88 1012.76 1012.61 1012.43 1012.23 1012.00 1011.75 1011.49 1011.24 1011.03 1010.86 1010.75 1010.72 1010.77 1010.89 1011.08 1011.33 1011.61 1011.91 1012.22 1012.53 1012.84 1013.14
1013.15 1013.01 1012.84 1012.66 1012.51 1012.41 1012.36 1012.38 1012.46 1012.58 1012.74 1012.90 1013.04 1013.16 1013.23 1013.26 1013.24 1013.18 1013.08 1012.97 1012.83 1012.68 1012.52 1012.34 1012.15 1011.94 1011.71 1011.47 1011.23 1011.00 1010.79 1010.62 1010.51 1010.46 1010.48 1010.57 1010.73 1010.95 1011.22 1011.53 1011.86 1012.20 1012.56 1012.91
1012.82 1012.68 1012.52 1012.37 1012.25 1012.18 1012.17 1012.22 1012.34 1012.50 1012.68 1012.87 1013.04 1013.16 1013.24 1013.26 1013.22 1013.13 1012.99 1012.82 1012.62 1012.41 1012.20 1011.98 1011.76 1011.53 1011.30 1011.07 1010.85 1010.64 1010.45 1010.29 1010.17 1010.10 1010.09 1010.15 1010.27 1010.46 1010.71 1011.01 1011.35 1011.72 1012.12 1012.53
1012.39 1012.27 1012.14 1012.03 1011.96 1011.94 1011.98 1012.08 1012.24 1012.44 1012.66 1012.88 1013.07 1013.20 1013.28 1013.28 1013.21 1013.08 1012.88 1012.65 1012.39 1012.12 1011.84 1011.57 1011.32 1011.07 1010.84 1010.63 1010.42 1010.23 1010.06 1009.90 1009.78 1009.69 1009.64 1009.65 1009.72 1009.86 1010.07 1010.34 1010.68 1011.07 1011.50 1011.96
1011.91 1011.82 1011.74 1011.68 1011.68 1011.72 1011.83 1011.99 1012.20 1012.44 1012.69 1012.93 1013.13 1013.27 1013.34 1013.32 1013.22 1013.04 1012.80 1012.51 1012.19 1011.86 1011.53 1011.22 1010.93 1010.67 1010.43 1010.22 1010.03 1009.85 1009.68 1009.52 1009.38 1009.25 1009.16 1009.11 1009.11 1009.18 1009.32 1009.55 1009.86 1010.24 1010.69 1011.17
1011.42 1011.37 1011.36 1011.38 1011.45 1011.58 1011.75 1011.98 1012.24 1012.51 1012.79 1013.04 1013.24 1013.37 1013.43 1013.39 1013.27 1013.06 1012.78 1012.45 1012.09 1011.71 1011.34 1010.99 1010.68 1010.40 1010.15 1009.93 1009.74 1009.55 1009.37 1009.19 1009.01 1008.84 1008.68 1008.55 1008.47 1008.45 1008.52 1008.68 1008.93 1009.28 1009.71 1010.21
1010.95 1010.97 1011.04 1011.16 1011.32 1011.53 1011.78 1012.06 1012.36 1012.66 1012.95 1013.20 1013.39 1013.52 1013.56 1013.52 1013.38 1013.17 1012.88 1012.53 1012.14 1011.75 1011.35 1010.97 1010.63 1010.32 1010.05 1009.80 1009.58 1009.36 1009.15 1008.93 1008.69 1008.46 1008.23 1008.02 1007.85 1007.75 1007.72 1007.80 1007.99 1008.29 1008.68 1009.16
1010.54 1010.64 1010.80 1011.01 1011.27 1011.57 1011.89 1012.22 1012.55 1012.87 1013.16 1013.40 1013.59 1013.71 1013.76 1013.71 1013.59 1013.38 1013.11 1012.77 1012.39 1011.99 1011.58 1011.18 1010.81 1010.46 1010.14 1009.84 1009.57 1009.30 1009.02 1008.74 1008.45 1008.15 1007.85 1007.56 1007.32 1007.14 1007.04 1007.05 1007.16 1007.40 1007.74 1008.17
1010.15 1010.34 1010.60 1010.92 1011.28 1011.66 1012.04 1012.42 1012.78 1013.10 1013.39 1013.63 1013.81 1013.93 1013.98 1013.96 1013.87 1013.70 1013.46 1013.16 1012.81 1012.42 1012.01 1011.59 1011.18 1010.78 1010.39 1010.02 1009.67 1009.32 1008.98 1008.63 1008.28 1007.92 1007.57 1007.24 1006.95 1006.72 1006.57 1006.52 1006.58 1006.75 1007.03 1007.41
1009.77 1010.05 1010.42 1010.83 1011.28 1011.73 1012.18 1012.59 1012.97 1013.30 1013.59 1013.82 1014.01 1014.14 1014.22 1014.24 1014.20 1014.09 1013.91 1013.66 1013.35 1012.99 1012.58 1012.14 1011.68 1011.22 1010.75 1010.30 1009.85 1009.42 1009.00 1008.59 1008.19 1007.80 1007.42 1007.08 1006.78 1006.54 1006.38 1006.30 1006.33 1006.46 1006.69 1007.00
1009.35 1009.73 1010.19 1010.70 1011.23 1011.75 1012.24 1012.69 1013.08 1013.43 1013.72 1013.96 1014.16 1014.32 1014.44 1014.51 1014.53 1014.50 1014.39 1014.21 1013.95 1013.62 1013.21 1012.75 1012.25 1011.71 1011.16 1010.61 1010.08 1009.56 1009.07 1008.61 1008.18 1007.79 1007.43 1007.11 1006.84 1006.64 1006.50 1006.44 1006.46 1006.57 1006.76 1007.02
1008.87 1009.34 1009.89 1010.49 1011.09 1011.67 1012.21 1012.69 1013.10 1013.46 1013.76 1014.02 1014.24 1014.44 1014.61 1014.75 1014.84 1014.89 1014.86 1014.75 1014.54 1014.24 1013.84 1013.36 1012.81 1012.21 1011.59 1010.95 1010.33 1009.75 1009.20 1008.71 1008.28 1007.91 1007.59 1007.33 1007.14 1007.00 1006.92 1006.91 1006.95 1007.05 1007.21 1007.42
1008.33 1008.89 1009.53 1010.20 1010.86 1011.50 1012.08 1012.59 1013.03 1013.40 1013.73 1014.02 1014.28 1014.52 1014.74 1014.95 1015.12 1015.23 1015.28 1015.23 1015.08 1014.81 1014.42 1013.93 1013.35 1012.70 1012.01 1011.31 1010.63 1009.99 1009.41 1008.92 1008.50 1008.17 1007.92 1007.74 1007.64 1007.58 1007.58 1007.62 1007.70 1007.81 1007.95 1008.11
1007.78 1008.42 1009.12 1009.86 1010.58 1011.26 1011.88 1012.43 1012.90 1013.31 1013.67 1013.99 1014.29 1014.58 1014.86 1015.12 1015.36 1015.54 1015.64 1015.65 1015.54 1015.31 1014.94 1014.44 1013.84 1013.17 1012.44 1011.70 1010.98 1010.32 1009.74 1009.25 1008.86 1008.58 1008.40 1008.31 1008.28 1008.32 1008.39 1008.49 1008.60 1008.72 1008.83 1008.94
1007.28 1007.98 1008.74 1009.53 1010.30 1011.03 1011.69 1012.27 1012.78 1013.23 1013.62 1013.98 1014.33 1014.66 1014.99 1015.30 1015.58 1015.81 1015.97 1016.02 1015.95 1015.74 1015.40 1014.92 1014.33 1013.65 1012.92 1012.17 1011.45 1010.79 1010.21 1009.75 1009.39 1009.16 1009.03 1009.00 1009.04 1009.13 1009.25 1009.39 1009.51 1009.62 1009.71 1009.77
1006.90 1007.64 1008.44 1009.27 1010.08 1010.84 1011.54 1012.16 1012.72 1013.21 1013.64 1014.04 1014.43 1014.80 1015.16 1015.50 1015.81 1016.07 1016.26 1016.34 1016.31 1016.13 1015.82 1015.38 1014.82 1014.17 1013.47 1012.75 1012.05 1011.41 1010.86 1010.42 1010.09 1009.89 1009.79 1009.79 1009.86 1009.97 1010.11 1010.24 1010.36 1010.44 1010.48 1010.49
1006.69 1007.45 1008.27 1009.11 1009.95 1010.74 1011.47 1012.14 1012.73 1013.26 1013.74 1014.18 1014.60 1014.99 1015.37 1015.73 1016.05 1016.33 1016.53 1016.64 1016.63 1016.49 1016.23 1015.84 1015.34 1014.75 1014.10 1013.44 1012.79 1012.20 1011.68 1011.26 1010.95 1010.76 1010.66 1010.66 1010.72 1010.81 1010.92 1011.02 1011.10 1011.13 1011.12 1011.06
1006.67 1007.42 1008.23 1009.07 1009.91 1010.72 1011.48 1012.18 1012.82 1013.39 1013.90 1014.38 1014.81 1015.23 1015.61 1015.97 1016.30 1016.57 1016.77 1016.89 1016.91 1016.82 1016.61 1016.28 1015.86 1015.36 1014.80 1014.21 1013.64 1013.10 1012.63 1012.24 1011.94 1011.73 1011.62 1011.58 1011.60 1011.64 1011.70 1011.74 1011.76 1011.72 1011.65 1011.52
1006.81 1007.52 1008.31 1009.12 1009.96 1010.77 1011.54 1012.26 1012.93 1013.53 1014.08 1014.58 1015.04 1015.46 1015.84 1016.19 1016.50 1016.76 1016.97 1017.09 1017.13 1017.08 1016.94 1016.69 1016.36 1015.96 1015.50 1015.02 1014.53 1014.07 1013.64 1013.28 1012.99 1012.77 1012.62 1012.54 1012.50 1012.48 1012.46 1012.44 1012.38 1012.28 1012.13 1011.94
1007.06 1007.71 1008.44 1009.22 1010.02 1010.82 1011.60 1012.33 1013.02 1013.65 1014.23 1014.75 1015.22 1015.64 1016.02 1016.35 1016.64 1016.89 1017.08 1017.21 1017.28 1017.27 1017.19 1017.03 1016.80 1016.50 1016.16 1015.78 1015.40 1015.01 1014.65 1014.32 1014.04 1013.81 1013.63 1013.50 1013.40 1013.31 1013.23 1013.13 1013.01 1012.84 1012.64 1012.40
1007.34 1007.92 1008.59 1009.31 1010.07 1010.84 1011.61 1012.35 1013.06 1013.71 1014.31 1014.84 1015.32 1015.74 1016.11 1016.43 1016.70 1016.92 1017.11 1017.24 1017.32 1017.35 1017.33 1017.25 1017.12 1016.93 1016.71 1016.44 1016.15 1015.85 1015.56 1015.27 1015.01 1014.79 1014.59 1014.42 1014.27 1014.14 1014.00 1013.85 1013.68 1013.46 1013.21 1012.92
1007.59 1008.10 1008.69 1009.36 1010.07 1010.81 1011.56 1012.30 1013.02 1013.68 1014.30 1014.85 1015.33 1015.76 1016.11 1016.42 1016.67 1016.88 1017.05 1017.18 1017.28 1017.34 1017.37 1017.36 1017.31 1017.22 1017.10 1016.94 1016.75 1016.53 1016.31 1016.08 1015.85 1015.64 1015.44 1015.26 1015.08 1014.92 1014.75 1014.57 1014.37 1014.13 1013.85 1013.53
1007.76 1008.20 1008.73 1009.34 1010.01 1010.72 1011.46 1012.20 1012.92 1013.60 1014.23 1014.79 1015.29 1015.71 1016.06 1016.35 1016.59 1016.78 1016.94 1017.07 1017.17 1017.26 1017.32 1017.37 1017.39 1017.38 1017.34 1017.27 1017.16 1017.03 1016.87 1016.70 1016.52 1016.33 1016.15 1015.97 1015.80 1015.63 1015.45 1015.26 1015.04 1014.80 1014.50 1014.17
Thickness
5719 5724 5725 5722 5722 5722 5719 5722 5717 5720 5721 5721 5720 5719 5717 5714 5712 5710 5707 5704 5701 5698 5696 5694 5692 5690 5688 5686 5684 5682 5680 5678 5676 5674 5674 5673 5672 5672 5672 5672 5673 5673 5673 5674
5707 5716 5717 5715 5718 5718 5717 5718 5716 5716 5714 5721 5719 5715 5710 5708 5705 5702 5700 5698 5696 5693 5690 5687 5685 5684 5682 5680 5678 5676 5674 5672 5671 5669 5668 5667 5666 5666 5666 5666 5667 5668 5668 5669
5698 5708 5706 5701 5711 5713 5712 5714 5712 5706 5710 5713 5707 5704 5702 5700 5698 5696 5694 5692 5689 5687 5684 5681 5680 5678 5675 5674 5673 5671 5669 5668 5666 5665 5663 5662 5662 5661 5661 5661 5661 5662 5662 5663
5694 5691 5678 5702 5714 5713 5708 5707 5710 5708 5707 5704 5701 5700 5699 5697 5694 5691 5689 5686 5683 5682 5680 5678 5676 5673 5671 5670 5668 5666 5664 5663 5661 5659 5658 5657 5657 5656 5656 5656 5656 5656 5657 5658
5685 5682 5687 5695 5701 5701 5696 5694 5701 5700 5698 5696 5696 5693 5691 5691 5689 5685 5682 5679 5677 5676 5674 5672 5669 5667 5665 5664 5662 5660 5658 5657 5656 5655 5653 5652 5652 5651 5651 5651 5651 5651 5653 5653
5678 5670 5669 5686 5696 5699 5691 5680 5691 5691 5688 5687 5686 5682 5681 5682 5680 5677 5674 5672 5670 5668 5666 5664 5661 5660 5658 5656 5655 5654 5653 5652 5650 5649 5648 5647 5647 5646 5647 5647 5646 5647 5648 5648
5670 5668 5678 5686 5690 5687 5670 5673 5680 5681 5679 5678 5677 5675 5674 5674 5671 5668 5666 5664 5662 5659 5657 5655 5653 5652 5650 5649 5648 5648 5647 5646 5645 5643 5643 5642 5642 5641 5641 5642 5642 5642 5643 5644
5666 5661 5665 5678 5678 5671 5669 5673 5673 5672 5671 5669 5667 5666 5665 5663 5661 5659 5657 5656 5653 5651 5648 5647 5645 5644 5642 5641 5641 5640 5640 5640 5639 5638 5638 5639 5636 5636 5636 5637 5637 5637 5637 5638
5662 5662 5664 5669 5668 5667 5667 5664 5663 5663 5663 5660 5658 5656 5655 5654 5653 5651 5650 5649 5647 5645 5642 5641 5639 5638 5636 5635 5635 5634 5633 5633 5633 5633 5633 5633 5632 5631 5632 5632 5633 5634 5634 5635
5653 5658 5659 5659 5660 5659 5659 5657 5657 5656 5655 5653 5651 5650 5648 5646 5645 5644 5643 5641 5640 5638 5636 5634 5633 5633 5631 5630 5629 5628 5627 5627 5628 5628 5628 5628 5627 5629 5628 5628 5628 5629 5629 5630
5644 5649 5651 5652 5652 5652 5651 5650 5650 5649 5648 5647 5646 5643 5641 5639 5638 5637 5636 5635 5633 5631 5630 5629 5628 5626 5625 5624 5623 5622 5621 5622 5623 5624 5624 5622 5622 5621 5622 5621 5622 5621 5623 5624
5638 5642 5641 5642 5645 5645 5643 5642 5642 5641 5639 5639 5638 5636 5634 5632 5631 5630 5629 5628 5627 5626 5625 5624 5622 5620 5619 5618 5618 5616 5616 5617 5619 5619 5619 5618 5617 5616 5613 5612 5611 5611 5611 5613
5637 5639 5638 5638 5638 5638 5637 5636 5635 5634 5632 5630 5630 5628 5627 5625 5624 5624 5623 5622 5621 5620 5619 5618 5616 5614 5614 5614 5613 5611 5611 5612 5613 5614 5614 5614 5613 5612 5610 5607 5604 5603 5603 5604
5630 5629 5628 5629 5629 5630 5630 5629 5628 5627 5626 5624 5622 5621 5620 5618 5617 5617 5616 5616 5615 5615 5614 5612 5611 5609 5609 5609 5608 5607 5607 5607 5606 5607 5609 5609 5608 5608 5607 5606 5605 5604 5600 5598
5623 5623 5623 5623 5623 5623 5623 5622 5620 5619 5618 5616 5615 5613 5612 5611 5610 5611 5611 5611 5609 5608 5607 5606 5605 5603 5604 5603 5602 5602 5602 5603 5602 5602 5603 5603 5603 5603 5603 5602 5601 5601 5601 5597
5616 5616 5616 5616 5615 5615 5615 5614 5613 5612 5611 5610 5608 5607 5606 5606 5605 5605 5605 5605 5603 5602 5601 5600 5598 5598 5598 5598 5597 5597 5596 5593 5593 5596 5597 5598 5598 5597 5597 5595 5594 5595 5594 5594
5608 5607 5608 5608 5608 5608 5608 5607 5607 5606 5605 5604 5602 5602 5601 5600 5599 5598 5599 5600 5599 5597 5595 5594 5593 5593 5593 5592 5592 5593 5593 5591 5586 5589 5592 5592 5592 5592 5591 5589 5589 5588 5588 5588
5605 5605 5605 5604 5603 5602 5602 5602 5601 5600 5598 5598 5598 5596 5595 5594 5593 5593 5593 5594 5593 5591 5590 5589 5588 5587 5587 5586 5586 5587 5588 5588 5586 5585 5585 5586 5585 5585 5585 5584 5584 5584 5584 5584
5601 5600 5599 5598 5598 5598 5597 5596 5595 5594 5593 5593 5592 5591 5590 5589 5588 5588 5588 5587 5586 5585 5584 5583 5578 5579 5581 5580 5578 5580 5581 5581 5581 5581 5580 5578 5579 5579 5579 5579 5579 5579 5580 5580
5595 5595 5594 5593 5593 5592 5591 5591 5589 5588 5588 5587 5586 5585 5585 5584 5583 5582 5582 5582 5582 5581 5579 5576 5575 5575 5575 5574 5571 5576 5576 5576 5575 5575 5575 5575 5575 5575 5575 5574 5574 5574 5574 5574
5588 5588 5588 5587 5586 5586 5586 5584 5583 5582 5582 5582 5580 5580 5579 5578 5578 5577 5577 5578 5577 5575 5573 5569 5570 5570 5570 5568 5565 5571 5572 5571 5570 5570 5570 5570 5570 5569 5569 5568 5569 5569 5569 5569
5582 5582 5581 5581 5580 5580 5579 5579 5578 5578 5577 5576 5576 5575 5574 5573 5573 5572 5572 5571 5571 5566 5567 5569 5568 5563 5562 5560 5565 5566 5566 5565 5564 5564 5564 5564 5564 5563 5562 5562 5562 5563 5563 5563
5575 5575 5575 5574 5574 5574 5574 5574 5574 5573 5572 5572 5571 5570 5569 5569 5569 5569 5568 5567 5566 5561 5562 5563 5558 5554 5551 5555 5559 5560 5559 5558 5558 5557 5557 5556 5557 5556 5556 5556 5556 5556 5557 5556
5568 5568 5568 5569 5569 5568 5568 5569 5570 5569 5568 5567 5567 5566 5565 5564 5564 5565 5564 5559 5556 5554 5557 5554 5549 5547 5544 5551 5553 5554 5553 5552 5552 5552 5551 5550 5550 5550 5549 5549 5549 5550 5550 5549
5562 5562 5563 5563 5563 5564 5564 5564 5564 5564 5563 5564 5564 5563 5562 5561 5560 5560 5558 5555 5551 5549 5552 5549 5544 5542 5544 5548 5548 5548 5547 5546 5545 5544 5544 5543 5543 5542 5542 5542 5543 5543 5543 5543
5555 5556 5558 5557 5558 5559 5561 5562 5562 5561 5561 5561 5560 5559 5558 5557 5555 5554 5552 5551 5549 5545 5546 5547 5545 5540 5543 5543 5543 5541 5540 5538 5537 5536 5535 5535 5536 5536 5535 5535 5535 5536 5536 5536
5552 5552 5552 5553 5555 5556 5557 5558 5557 5557 5557 5556 5554 5554 5553 5552 5550 5549 5548 5547 5546 5544 5543 5543 5542 5540 5540 5538 5537 5535 5533 5533 5531 5530 5529 5528 5528 5528 5528 5528 5528 5529 5528 5529